Terminal Aerodrome Forecast
Issued by NWS

Home | Current Version | Previous Version | Text Only | Print | Product List | Glossary On
Versions: 1 2 3 4 5 6 7 8 9 10 11 12 13 14 15 16 17 18 19 20 21
000
FTUS45 KRIW 241500 AAB
TAFJAC
TAF AMD
KJAC 241506Z 2415/2512 27009KT P6SM SCT025 BKN040
     FM241900 21010KT P6SM FEW020 SCT060
     FM250400 19007KT P6SM VCSH SCT030 BKN045
     FM250900 18011KT 2SM -SN OVC018
      AMD LTD TO CLD VIS AND WIND=

USA.gov is the U.S. government's official web portal to all federal, state and local government web resources and services.